星链-6095 (STARLINK-6095 )

导读 | 星芒AI

STARLINK-6095 是 SpaceX Starlink 项目中的一颗低轨通信卫星,属于第 60 批发射的星链卫星群。该卫星旨在为全球用户提供高速互联网服务,尤其关注网络覆盖不足的地区。它运行在约 550 公里的轨道高度,配备先进通信设备,支持 Ku 和 Ka 频段传输。作为 Starlink 卫星互联网系统的一部分,STARLINK-6095 有助于提升全球网络连接的稳定性和速度,推动远程教育、医疗和商业应用的发展。

基本信息
目录编号:
56101
目录名称:
STARLINK-6095
国际标识:
2023-046J
轨道中心:
EARTH
卫星名称:
星链-6095
卫星全名:
星链-6095 (STARLINK-6095 )
卫星状态:
在轨 (已飞行998 天)
发射日期:
2023-03-29 UTC
国别 :
美国 (US)
星等 :
--
轨道信息
数据来源 国际轨道数据 AOE轨道数据
星历时间 2025-12-20T23:55:27+0800
1天前
查看轨道信息
2025-12-17T14:00:00+0800
4天前
查看轨道信息
半长轴 6937.216km 6937.188km
偏心率 0.0000978 0.0001107
轨道倾角 43.003° 43.002°
近地点辐角 272.005° 275.183°
升交点赤经 228.426° 246.978°
平近点角 88.068° 319.582°
近地点 558.4km 558.285km
远地点 559.758km 559.821km
周期 95.838分钟 95.837分钟
每日圈数 15.025362 15.025455
详细信息
固有亮度:
5
最大亮度:
2.5
卫星平台:
Starlink v1.5
覆盖范围:
全球
运营商:
太空探索技术公司
运营商所在国:
美国
制造商(研发单位):
太空探索技术公司
制造商所在国:
美国
使用方式:
暂无
卫星简介
星链(Starlink)计划是由太空探索技术公司(SpaceX)提出的一个巨型低轨卫星互联网星座项目,计划在2019年至2024年间在太空搭建由约1.2万颗卫星组成的“星链”网络,其中1584颗将部署在地球上空550千米处的近地轨道,并从2020年开始工作。该卫星仍在工作。
2D轨道图
3D轨道图
轨道高度分析图
轨道倾角分析图
轨道综合分析图
查看轨道综合分析图